Regional Weather Roundup
Issued by NWS

Home | Current Version | Previous Version | Graphics & Text | Print | Product List | Glossary On
Versions: 1 2 3 4 5 6 7 8 9 10 11 12 13 14 15 16 17 18 19 20 21 22 23 24 25 26 27 28 29 30 31 32 33 34 35 36 37 38 39 40 41 42 43 44 45 46 47 48 49 50
000
ASUS43 KMKX 220921
RWRWI

WISCONSIN REGIONAL WEATHER ROUNDUP
NATIONAL WEATHER SERVICE MILWAUKEE/SULLIVAN WI
400 AM CDT FRI MAY 22 2015

NOTE: "FAIR" INDICATES FEW OR NO CLOUDS BELOW 12,000 FEET WITH NO
SIGNIFICANT WEATHER AND/OR OBSTRUCTIONS TO VISIBILITY.

WIZ001-002-006>008-014>016-023>028-221000-
NORTHWEST WISCONSIN

CITY           SKY/WX    TMP DP  RH WIND       PRES   REMARKS
SUPERIOR ARPT  CLEAR     36  33  90 CALM      30.15R
ASHLAND        CLEAR     36  32  85 W5        30.14R WCI  32
HAYWARD        CLEAR     34  30  85 CALM      30.14R
SIREN          CLEAR     35  32  88 CALM      30.15R
CUMBERLAND     FAIR      41  32  70 N3        30.13S
RICE LAKE      FAIR      41  37  87 CALM      30.15R
CHETEK         FAIR      38  37  93 CALM      30.14R
LADYSMITH      CLEAR     37  35  94 CALM      30.15R
EAU CLAIRE     CLEAR     40  38  93 NE5       30.12R FOG
MENOMONIE      CLEAR     46  38  73 CALM      30.13R
NEW RICHMOND   CLEAR     43  35  72 CALM      30.14R
OSCEOLA        CLEAR     39  39 100 CALM      30.17R
$$

WIZ003>005-009-010-017-018-221000-
NORTH CENTRAL WISCONSIN

CITY           SKY/WX    TMP DP  RH WIND       PRES   REMARKS
MANITOWISH WTR CLEAR     31  31 100 CALM      30.13R
ARBOR VITAE    CLEAR     37  32  84 CALM      30.13R
WOODRUFF       CLEAR     37  32  84 CALM      30.13R
RHINELANDER    CLEAR     36  30  79 E3        30.13R
EAGLE RIVER    CLEAR     32  29  88 CALM      30.13R
LAND O LAKES   CLEAR     29  29  98 CALM      30.15R
PHILLIPS       CLEAR     33  32  99 CALM      30.13R
TOMAHAWK       CLEAR     29  28  96 CALM      30.14R
MEDFORD        CLEAR     37  33  85 CALM      30.13R
MERRILL        CLEAR     32  31  99 CALM      30.15R
$$

WIZ029-030-035-036-043>047-221000-
CENTRAL WISCONSIN

CITY           SKY/WX    TMP DP  RH WIND       PRES   REMARKS
WAUSAU         CLEAR     38  36  92 CALM      30.13R
MOSINEE        CLEAR     43  34  70 SE6       30.14R
MARSHFIELD     CLEAR     40  33  76 E5        30.13R
STEVENS POINT  CLEAR     35  33  90 CALM      30.15R
WAUPACA        CLEAR     38  35  89 CALM      30.15R
WAUTOMA        CLEAR     36  35  96 CALM      30.14R
WISC RAPIDS    CLEAR     41  35  79 CALM      30.14R
CAMP DOUGLAS   CLEAR     35  35 100 CALM      30.11R
$$

WIZ011>013-019>022-031-037>040-048>050-221000-
NORTHEAST WISCONSIN

CITY           SKY/WX    TMP DP  RH WIND       PRES   REMARKS
ANTIGO         CLEAR     36  29  77 NE3       30.14R
SHAWANO        CLEAR     39  36  91 CALM      30.15R
OCONTO         CLEAR     32  32 100 CALM      30.14R
STURGEON BAY   CLEAR     37  28  70 N3        30.16R
GREEN BAY      CLEAR     38  35  89 NW3       30.14R
MANITOWOC      CLEAR     38  33  82 CALM      30.14R
APPLETON       CLEAR     36  30  80 N3        30.14R
CLINTONVILLE   CLEAR     36  36 100 CALM      30.14R FOG
OSHKOSH        CLEAR     47  28  47 E3        30.12R
$$

WIZ032>034-041-042-053>061-221000-
SOUTHWEST WISCONSIN

CITY           SKY/WX    TMP DP  RH WIND       PRES   REMARKS
LA CROSSE      CLEAR     47  42  83 CALM      30.11R
SPARTA         CLEAR     35  34  96 CALM      30.12R
VIROQUA        CLEAR     52  32  46 CALM      30.10S
BOSCOBEL       CLEAR     40  38  93 CALM      30.12R
PRAIRIE DU CHI CLEAR     43  39  86 CALM      30.11R
PLATTEVILLE    CLEAR     47  38  72 CALM      30.10R
$$

WIZ056-057-062-063-064-067-068-221000-
SOUTH CENTRAL WISCONSIN

CITY           SKY/WX    TMP DP  RH WIND       PRES   REMARKS
REEDSBURG      CLEAR     42  39  89 CALM      30.11R
BARABOO/DELLS  CLEAR     39  35  87 CALM      30.12R
LONE ROCK      CLEAR     41  38  89 CALM      30.12R
MINERAL POINT  CLEAR     50  36  57 E6        30.10R
MADISON        CLEAR     42  35  76 CALM      30.10R
MIDDLETON      CLEAR     43  37  77 CALM      30.11R
WATERTOWN      CLEAR     39  34  81 CALM      30.10R
MONROE         CLEAR     46  37  71 NE8       30.10R
JANESVILLE     CLEAR     46  32  57 E3        30.10R
$$

WIZ051-052-058>065-066-070>072-221000-
SOUTHEAST WISCONSIN

CITY           SKY/WX    TMP DP  RH WIND       PRES   REMARKS
MILWAUKEE      CLEAR     45  32  60 N5        30.11R
WAUKESHA       CLEAR     39  32  75 CALM      30.12R
MILWAUKEE/TIMM CLEAR     41  32  70 CALM      30.12R
RACINE         CLEAR     44  34  67 NE5       30.11R
BURLINGTON     CLEAR     40  32  75 CALM      30.10R
KENOSHA        CLEAR     45  36  70 NE6       30.10R
FOND DU LAC    CLEAR     39  30  70 N3        30.13R
SHEBOYGAN      CLEAR     34  31  88 CALM      30.13R
WEST BEND      CLEAR     37  34  87 CALM      30.11R
JUNEAU         CLEAR     44  28  53 CALM      30.12R
$$

LSZ147-162-221000-
LAKE SUPERIOR

STATION/POSITION TIME  TEMP    WIND        PRES    WAVE
                       AIR SEA DIR/SP/G            HT/PER
                 (UTC) (F)     (DEG/KT/KT) (MB)    (FT/S)
W MID LAKE BUOY  0850   37 36   40/  8/  8   N/A     0
DEVILS ISLAND    0900   40      40/  6/  7   N/A
PORT WING        0800   40     170/  4/  5   N/A
SAXON HARBOR     0800   36     190/  2/  5   N/A
$$

LMZ867-665-643>646-221000-
LAKE MICHIGAN

STATION/POSITION TIME  TEMP    WIND        PRES    WAVE
                       AIR SEA DIR/SP/G            HT/PER
                 (UTC) (F)     (DEG/KT/KT) (MB)    (FT/S)
CHAMBERS ISLAND  0800   45     310/  6/  9   N/A
N MID LAKE BUOY  0850   39 36  290/  6/  6   N/A     1/ 3
NORTHPORT PIER   0800   46     330/  9/ 10   N/A
SISTER BAY       0817   44      30/  6/  7   N/A
KEWAUNEE LAKESHO 0800          300/  5/  6   N/A
SHEBOYGAN LAKESH 0900          330/  4/  5   N/A
PORT WASHINGTON  0800   49     360/  3/  4   N/A
ATWATER BUOY     0900   46 44  350/  8/ 10   N/A
MILWAUKEE LAKESH 0900   49     340/  4/  5   N/A
S MID LAKE BUOY  0850   42 38   10/  8/ 10   N/A     0
KENOSHA   LAKESH 0900   49      20/  9/ 11   N/A
$$

TC  - TEMPERATURE IN CELSIUS
VSB - VISIBILITY IN STATUTE MILES
WCI - WIND CHILL INDEX
HX  - HEAT INDEX



USA.gov is the U.S. government's official web portal to all federal, state and local government web resources and services.